Flag for U.S.A. Weather past 2 weeks in Appleton, Wisconsin, U.S.A.

Now
70 °F

Partly sunny.


Feels Like: 70 °F
Forecast: 58 / 73 °F
Wind: 6 mph from North

Location: Appleton / Outagamie

Current Time: Aug 27, 2014 at 2:42:28 PM

Latest Report: Aug 27, 2014 at 1:45 PM


Visibility: 10 mi

Pressure: 30.18 "Hg

Humidity: 57%

Dew point: 54 °F

Location of AppletonLocation

Historic Weather in Appleton — Graph

°F

Appleton temperature yesterday

Maximum temperature yesterday: 73 °F (at 4:45 PM)
Minimum temperature yesterday: 59 °F (at 11:15 PM)
Average temperature yesterday: 67 °F

Past Weeks' High & Low Weather Summary

 TemperatureHumidityPressure
High82 °F (Aug 16, 2:45 PM)100% (Aug 16, 3:55 AM)32.99 "Hg (Aug 16, 3:55 AM)
Low37 °F (Aug 23, 6:45 AM)35% (Aug 14, 2:45 PM)29.66 "Hg (Aug 19, 3:55 AM)
Average66 °F81%29.97 "Hg
* Reported Aug 12 12:45 PM — Aug 27 12:45 PM, Appleton, Weather by CustomWeather, © 2014

Note: Actual official high and low records may vary slightly from our data, if they occured in-between our weather recording intervals... More about our weather records

Advertising

Appleton weather history for previous 24 hours

 ConditionsComfort  
Time TempWeatherWind HumidityBarometerVisibility
12:45 PM
Aug 27
70 °FPartly sunny.7 mph57%30.19 "Hg10 mi
11:45 AM70 °FPartly sunny.No wind46%30.19 "Hg10 mi
10:45 AM68 °FPassing clouds.No wind56%30.21 "Hg10 mi
9:50 AM66 °FPassing clouds.No wind56%30.21 "Hg10 mi
8:45 AM63 °FScattered clouds.No wind73%30.20 "Hg10 mi
7:45 AM59 °FScattered clouds.8 mph82%30.18 "Hg10 mi
6:45 AM59 °FPassing clouds.No wind77%30.18 "Hg10 mi
5:45 AM59 °FPassing clouds.6 mph77%30.16 "Hg10 mi
5:15 AM59 °FPassing clouds.7 mph77%30.17 "Hg10 mi
4:55 AM59 °FClear.6 mph72%30.16 "Hg10 mi
4:35 AM59 °FClear.7 mph77%30.17 "Hg10 mi
4:15 AM59 °FPassing clouds.9 mph77%30.16 "Hg10 mi
3:55 AM59 °FPassing clouds.9 mph77%30.17 "Hg10 mi
3:15 AM59 °FPassing clouds.10 mph77%30.17 "Hg10 mi
2:55 AM61 °FClear.8 mph72%30.17 "Hg10 mi
2:15 AM61 °FClear.8 mph77%30.16 "Hg10 mi
1:55 AM61 °FClear.12 mph77%30.16 "Hg10 mi
1:35 AM61 °FClear.9 mph77%30.15 "Hg10 mi
1:15 AM61 °FClear.7 mph77%30.15 "Hg10 mi
12:55 AM61 °FClear.7 mph83%30.15 "Hg10 mi
12:35 AM59 °FClear.8 mph88%30.14 "Hg10 mi
12:15 AM59 °FClear.8 mph88%30.14 "Hg10 mi
11:55 PM
Aug 26
59 °FClear.8 mph88%30.14 "Hg10 mi
11:15 PM59 °FClear.7 mph82%30.14 "Hg10 mi
10:45 PM61 °FPassing clouds.7 mph77%30.14 "Hg10 mi
9:45 PM61 °FPassing clouds.7 mph77%30.13 "Hg10 mi
8:45 PM63 °FPassing clouds.8 mph77%30.11 "Hg10 mi
7:45 PM66 °FScattered clouds.8 mph68%30.11 "Hg10 mi
5:45 PM73 °FScattered clouds.9 mph53%30.10 "Hg10 mi
4:45 PM73 °FScattered clouds.3 mph53%30.11 "Hg10 mi
3:45 PM72 °FPartly sunny.3 mph57%30.11 "Hg10 mi
2:45 PM72 °FBroken clouds.5 mph57%30.11 "Hg10 mi
Weather by CustomWeather, © 2014

See weather overviewHow to use our weather pages